GW3084 Weather Reports


Display with metric or nautical units.
time (UTC)temp
F
wind
direction
speed
MPH
gust
MPH
rain 1hr
in
rain 24hr
in
rain mn
in
humidity
%
barometer
mb
20260903165035 78 280 2.0 11.0 0.00 0.12 0.12 82 1013.1
20260903164030 78 275 4.0 11.0 0.00 0.12 0.12 83 1013.5
20260903163027 78 277 3.0 11.0 0.00 0.12 0.12 85 1013.8
20260903162024 77 270 3.0 10.0 0.00 0.12 0.12 86 1014.0
20260903161021 77 273 5.0 13.0 0.00 0.12 0.12 87 1014.0
20260903160037 76 280 4.0 11.0 0.00 0.12 0.12 90 1013.9
20260903155036 75 277 5.0 11.0 0.01 0.15 0.12 92 1013.7
20260903154051 74 277 4.0 8.0 0.01 0.17 0.12 93 1013.5
20260903153028 74 268 3.0 11.0 0.01 0.17 0.12 93 1013.2
20260903152024 74 271 3.0 9.0 0.03 0.17 0.12 93 1013.2
20260903151021 74 250 3.0 11.0 0.05 0.17 0.12 95 1013.2
20260903150018 73 233 2.0 7.0 0.06 0.17 0.12 99 1013.3
20260903145035 73 209 3.0 6.0 0.11 0.16 0.11 99 1013.2
20260903144032 73 192 1.0 3.0 0.11 0.16 0.11 99 1013.2
20260903143029 73 180 1.0 2.0 0.11 0.16 0.11 99 1013.3
20260903142025 73 0.0 0.0 0.09 0.14 0.09 99 1013.8
20260903141022 73 252 0.0 2.0 0.07 0.12 0.07 99 1013.8
20260903140018 73 173 0.0 1.0 0.06 0.11 0.06 98 1013.9
20260903135035 73 254 0.0 1.0 0.00 0.05 0.00 98 1014.0
20260903134051 73 292 0.0 2.0 0.00 0.05 0.00 99 1013.8
20260903133028 74 0 0.0 1.0 0.00 0.05 0.00 99 1013.4
20260903132025 71 9 0.0 2.0 0.00 0.05 0.00 99 1013.2
20260903131042 69 356 1.0 3.0 0.00 0.05 0.00 99 1013.1
20260903130017 69 349 2.0 7.0 0.00 0.05 0.00 99 1012.9
20260903125034 69 6 1.0 3.0 0.00 0.05 0.00 99 1013.0
20260903124031 68 334 0.0 1.0 0.00 0.05 0.00 99 1012.9
20260903123027 67 340 1.0 2.0 0.00 0.05 0.00 99 1013.0
20260903122024 67 343 1.0 3.0 0.00 0.05 0.00 99 1013.2
20260903121021 67 16 1.0 3.0 0.00 0.05 0.00 99 1013.2
20260903120036 67 1 1.0 2.0 0.00 0.05 0.00 99 1013.2
20260903115052 67 342 1.0 2.0 0.00 0.05 0.00 99 1013.2
20260903114028 67 339 1.0 1.0 0.00 0.05 0.00 99 1013.0
20260903113046 67 347 1.0 2.0 0.00 0.05 0.00 99 1013.2
20260903112021 69 355 1.0 2.0 0.00 0.05 0.00 99 1013.3
20260903111037 69 26 0.0 1.0 0.00 0.05 0.00 99 1013.2
20260903110034 69 0.0 0.0 0.00 0.05 0.00 99 1013.1
20260903105030 69 0.0 0.0 0.00 0.05 0.00 99 1012.9
20260903104047 69 0.0 0.0 0.00 0.05 0.00 99 1012.9
20260903103024 69 0.0 0.0 0.00 0.05 0.00 99 1013.1
20260903102020 69 0.0 0.0 0.00 0.05 0.00 99 1013.2
20260903101017 69 0.0 0.0 0.00 0.05 0.00 99 1013.2
20260903100054 69 0.0 0.0 0.00 0.05 0.00 99 1013.3
20260903095032 69 0.0 0.0 0.00 0.05 0.00 99 1013.3
20260903094027 69 320 0.0 1.0 0.00 0.05 0.00 99 1013.2
20260903093025 69 0.0 0.0 0.00 0.05 0.00 99 1013.0
20260903092021 69 0.0 0.0 0.00 0.05 0.00 99 1013.0
20260903091018 69 0.0 0.0 0.00 0.05 0.00 99 1013.0
20260903090034 69 0.0 0.0 0.00 0.05 0.00 99 1013.0
20260903085031 69 0.0 0.0 0.00 0.05 0.00 99 1012.9
20260903084108 69 0.0 0.0 0.00 0.05 0.00 99 1013.0
20260903083024 68 0.0 0.0 0.00 0.05 0.00 99 1012.9
20260903082021 68 0.0 0.0 0.00 0.05 0.00 99 1013.1
20260903081018 68 0.0 0.0 0.00 0.05 0.00 99 1013.2
20260903080055 68 0.0 0.0 0.00 0.05 0.00 99 1013.2
20260903075031 68 0.0 0.0 0.00 0.05 0.00 99 1013.3
20260903074028 68 0.0 0.0 0.00 0.05 0.00 99 1013.2
20260903073025 69 0.0 0.0 0.00 0.05 0.00 99 1013.3
20260903072041 69 0.0 0.0 0.00 0.05 0.00 99 1013.4
20260903071020 69 0.0 0.0 0.00 0.05 0.00 99 1013.4
20260903070035 69 0.0 0.0 0.00 0.06 0.00 99 1013.5
20260903065032 69 0.0 0.0 0.00 0.16 0.00 99 1013.5
20260903064028 69 0.0 0.0 0.00 0.19 0.00 99 1013.5
20260903063023 69 0.0 0.0 0.00 0.19 0.00 99 1013.5
20260903062019 69 0.0 0.0 0.00 0.19 0.00 99 1013.7
20260903061035 69 0.0 0.0 0.00 0.19 0.00 99 1013.5
20260903060029 69 0.0 0.0 0.00 0.19 0.00 99 1013.5
20260903055026 69 0.0 0.0 0.00 0.19 0.00 99 1013.5
20260903054022 69 0.0 0.0 0.00 0.19 0.00 99 1013.5
20260903053015 69 0.0 0.0 0.00 0.19 0.00 99 1013.4
20260903052033 69 0.0 0.0 0.00 0.19 0.00 99 1013.5
20260903051028 69 0.0 0.0 0.00 0.19 0.00 99 1013.4
20260903050025 68 0.0 0.0 0.00 0.19 0.00 99 1013.2
20260903045042 69 318 0.0 1.0 0.00 0.19 0.19 99 1013.1
20260903044018 69 0.0 0.0 0.00 0.19 0.19 99 1013.1
20260903043056 69 318 0.0 1.0 0.00 0.19 0.19 99 1013.0
20260903042032 69 318 0.0 1.0 0.00 0.19 0.19 99 1013.1
20260903041029 69 314 0.0 1.0 0.00 0.19 0.19 99 1013.1
20260903040025 69 331 0.0 1.0 0.00 0.19 0.19 99 1013.2
20260903035022 69 334 0.0 1.0 0.00 0.19 0.19 99 1013.1
20260903034019 69 355 0.0 1.0 0.00 0.19 0.19 99 1013.2
20260903033016 69 0.0 0.0 0.00 0.19 0.19 99 1013.1
20260903032034 69 339 0.0 1.0 0.00 0.19 0.19 99 1013.1
20260903031030 69 0.0 0.0 0.00 0.19 0.19 99 1013.1
20260903030026 69 2 1.0 2.0 0.00 0.19 0.19 99 1013.2
20260903025023 69 358 1.0 3.0 0.00 0.19 0.19 98 1013.2
20260903024040 70 13 1.0 3.0 0.00 0.19 0.19 98 1013.2
20260903023020 70 358 1.0 1.0 0.00 0.19 0.19 98 1013.2
20260903022015 70 22 0.0 1.0 0.00 0.19 0.19 97 1013.1
20260903021033 70 0.0 0.0 0.00 0.19 0.19 97 1013.0
20260903020051 70 0.0 0.0 0.00 0.19 0.19 97 1013.0
20260903015026 70 333 0.0 1.0 0.00 0.19 0.19 97 1013.0
20260903014043 70 340 0.0 1.0 0.00 0.19 0.19 96 1013.0
20260903013020 70 344 1.0 3.0 0.00 0.19 0.19 96 1012.8
20260903012016 70 61 0.0 1.0 0.00 0.19 0.19 95 1012.7
20260903011033 71 60 0.0 2.0 0.00 0.19 0.19 95 1012.7
20260903010030 71 78 0.0 1.0 0.00 0.19 0.19 94 1012.5
20260903005028 71 42 0.0 2.0 0.00 0.19 0.19 93 1012.4
20260903004024 72 93 0.0 1.0 0.00 0.19 0.19 93 1012.3
20260903003020 72 47 0.0 1.0 0.00 0.19 0.19 92 1012.2
20260903002036 72 108 0.0 2.0 0.00 0.19 0.19 92 1012.2
20260903001033 73 96 0.0 2.0 0.00 0.19 0.19 90 1012.2
20260903000030 74 117 0.0 2.0 0.00 0.19 0.19 89 1012.3
20260902235028 74 107 0.0 3.0 0.00 0.19 0.19 87 1012.4
20260902234045 75 117 0.0 2.0 0.00 0.19 0.19 85 1012.5
20260902233020 77 175 0.0 2.0 0.00 0.19 0.19 82 1012.2
20260902232017 78 109 1.0 4.0 0.00 0.19 0.19 80 1012.2
20260902231033 78 96 1.0 3.0 0.00 0.19 0.19 80 1012.3
20260902230030 80 113 1.0 6.0 0.00 0.19 0.19 77 1012.3
20260902225027 80 114 1.0 2.0 0.00 0.19 0.19 77 1012.4
20260902224024 81 86 1.0 4.0 0.00 0.19 0.19 76 1012.4
20260902223021 81 114 1.0 6.0 0.00 0.19 0.19 77 1012.5
20260902222018 78 100 1.0 3.0 0.00 0.19 0.19 81 1012.5
20260902221036 76 105 1.0 3.0 0.00 0.19 0.19 83 1012.6
20260902220032 75 104 2.0 6.0 0.00 0.19 0.19 85 1012.6
20260902215048 76 115 2.0 6.0 0.00 0.19 0.19 83 1012.6
20260902214024 76 112 2.0 6.0 0.00 0.19 0.19 82 1012.6
20260902213021 76 111 2.0 7.0 0.00 0.19 0.19 82 1012.7
20260902212017 76 104 2.0 6.0 0.00 0.19 0.19 82 1012.6
20260902211034 76 115 2.0 6.0 0.00 0.19 0.19 82 1012.5
20260902210032 77 104 3.0 6.0 0.00 0.19 0.19 79 1012.7
20260902205028 77 126 2.0 6.0 0.00 0.19 0.19 78 1012.7
20260902204045 77 136 3.0 6.0 0.00 0.19 0.19 77 1012.7
20260902203021 78 128 2.0 6.0 0.00 0.19 0.19 75 1012.6
20260902202018 77 137 2.0 4.0 0.00 0.19 0.19 76 1012.7
20260902201055 78 134 3.0 8.0 0.00 0.19 0.19 74 1012.6
20260902200032 78 144 3.0 9.0 0.00 0.19 0.19 73 1012.6
20260902195028 79 142 3.0 6.0 0.00 0.19 0.19 71 1012.7
20260902194048 79 150 2.0 7.0 0.00 0.19 0.19 72 1012.7
20260902193022 78 128 3.0 9.0 0.00 0.19 0.19 71 1012.8
20260902192019 80 126 4.0 8.0 0.00 0.19 0.19 68 1012.8
20260902191016 80 131 2.0 6.0 0.00 0.19 0.19 66 1012.8
20260902190033 82 127 2.0 6.0 0.00 0.19 0.19 61 1013.0
20260902185030 83 143 2.0 4.0 0.00 0.19 0.19 61 1013.0
20260902184026 82 133 2.0 4.0 0.00 0.19 0.19 63 1013.0
20260902183023 81 142 2.0 4.0 0.00 0.19 0.19 67 1013.0
20260902182020 78 143 1.0 3.0 0.00 0.19 0.19 72 1013.3
20260902181016 77 143 1.0 3.0 0.00 0.19 0.19 73 1013.2
20260902180054 77 124 1.0 3.0 0.00 0.19 0.19 72 1013.5
20260902175031 77 158 2.0 6.0 0.00 0.19 0.19 73 1013.5
20260902174026 77 121 1.0 2.0 0.00 0.19 0.19 74 1013.5
20260902173023 79 131 2.0 4.0 0.00 0.19 0.19 71 1013.7
20260902172040 79 152 2.0 8.0 0.00 0.19 0.19 72 1013.4
20260902171018 77 173 2.0 7.0 0.00 0.19 0.19 76 1013.4
20260902170053 77 163 2.0 8.0 0.00 0.19 0.19 78 1013.6